| time (UTC) | temp F | wind direction | speed knots | gust knots | rain 1hr in | rain 24hr in | rain mn in | humidity % | barometer mb |
| 20260510175704 | 65 | 292 | 2.6 | 7.0 | 0.00 | 0.08 | 0.00 | 69 | 1012.7 |
| 20260510174705 | 63 | 295 | 2.6 | 7.8 | 0.00 | 0.09 | 0.00 | 75 | 1012.8 |
| 20260510173204 | 63 | 297 | 1.7 | 6.1 | 0.00 | 0.10 | 0.00 | 74 | 1012.5 |
| 20260510172706 | 64 | 286 | 2.6 | 7.8 | 0.00 | 0.10 | 0.00 | 72 | 1012.6 |
| 20260510172205 | 64 | 309 | 3.5 | 6.1 | 0.00 | 0.11 | 0.00 | 74 | 1012.5 |
| 20260510171705 | 64 | 319 | 2.6 | 6.1 | 0.00 | 0.11 | 0.00 | 76 | 1012.5 |
| 20260510171205 | 63 | 308 | 1.7 | 2.6 | 0.00 | 0.11 | 0.00 | 73 | 1012.5 |
| 20260510170705 | 64 | 355 | 2.6 | 8.7 | 0.00 | 0.11 | 0.00 | 76 | 1012.6 |
| 20260510170205 | 64 | 288 | 4.3 | 7.8 | 0.00 | 0.12 | 0.00 | 77 | 1012.6 |
| 20260510165705 | 64 | 286 | 4.3 | 7.8 | 0.00 | 0.12 | 0.00 | 76 | 1012.6 |
| 20260510164704 | 62 | 286 | 3.5 | 7.8 | 0.00 | 0.12 | 0.00 | 80 | 1012.7 |
| 20260510163704 | 61 | 331 | 2.6 | 10.4 | 0.00 | 0.13 | 0.00 | 82 | 1012.8 |
| 20260510163205 | 60 | 297 | 1.7 | 7.0 | 0.00 | 0.13 | 0.00 | 82 | 1012.8 |
| 20260510162706 | 60 | 296 | 4.3 | 7.0 | 0.00 | 0.13 | 0.00 | 84 | 1012.8 |
| 20260510162204 | 60 | 305 | 4.3 | 7.8 | 0.00 | 0.13 | 0.00 | 82 | 1012.7 |
| 20260510161704 | 60 | 319 | 2.6 | 10.4 | 0.00 | 0.14 | 0.00 | 85 | 1012.6 |
| 20260510161205 | 59 | 275 | 5.2 | 10.4 | 0.00 | 0.14 | 0.00 | 84 | 1012.7 |
| 20260510160705 | 59 | 291 | 6.1 | 13.9 | 0.00 | 0.15 | 0.00 | 84 | 1012.7 |
| 20260510155704 | 59 | 322 | 2.6 | 6.1 | 0.00 | 0.16 | 0.00 | 86 | 1012.7 |
| 20260510155205 | 58 | 312 | 2.6 | 7.0 | 0.00 | 0.16 | 0.00 | 88 | 1012.6 |
| 20260510154705 | 57 | 294 | 4.3 | 8.7 | 0.00 | 0.16 | 0.00 | 89 | 1012.7 |
| 20260510154204 | 56 | 301 | 5.2 | 10.4 | 0.00 | 0.17 | 0.00 | 89 | 1012.6 |
| 20260510153704 | 57 | 303 | 5.2 | 12.2 | 0.00 | 0.17 | 0.00 | 87 | 1012.7 |
| 20260510153205 | 59 | 309 | 7.0 | 15.6 | 0.00 | 0.18 | 0.00 | 86 | 1012.7 |
| 20260510152704 | 60 | 267 | 3.5 | 6.1 | 0.00 | 0.18 | 0.00 | 87 | 1012.4 |
| 20260510152205 | 60 | 288 | 2.6 | 7.0 | 0.00 | 0.18 | 0.00 | 89 | 1012.1 |
| 20260510151705 | 60 | 275 | 2.6 | 7.8 | 0.00 | 0.19 | 0.00 | 88 | 1012.1 |
| 20260510151205 | 60 | 277 | 1.7 | 2.6 | 0.00 | 0.19 | 0.00 | 88 | 1012.0 |
| 20260510150205 | 60 | 274 | 0.9 | 2.6 | 0.00 | 0.20 | 0.00 | 87 | 1011.8 |
| 20260510145705 | 59 | 282 | 1.7 | 2.6 | 0.00 | 0.21 | 0.00 | 89 | 1011.8 |
| 20260510144705 | 59 | 237 | 1.7 | 4.3 | 0.00 | 0.22 | 0.00 | 87 | 1011.7 |
| 20260510144204 | 59 | 248 | 2.6 | 2.6 | 0.00 | 0.23 | 0.00 | 87 | 1011.6 |
| 20260510143705 | 59 | 277 | 0.9 | 2.6 | 0.00 | 0.24 | 0.00 | 87 | 1011.5 |
| 20260510143205 | 59 | 278 | 1.7 | 2.6 | 0.00 | 0.25 | 0.00 | 88 | 1011.5 |
| 20260510142705 | 59 | 239 | 1.7 | 2.6 | 0.00 | 0.26 | 0.00 | 89 | 1011.4 |
| 20260510141705 | 59 | 219 | 2.6 | 5.2 | 0.00 | 0.28 | 0.00 | 88 | 1011.5 |
| 20260510141205 | 59 | 230 | 3.5 | 7.0 | 0.00 | 0.29 | 0.00 | 89 | 1011.5 |
| 20260510140705 | 60 | 262 | 1.7 | 2.6 | 0.00 | 0.29 | 0.00 | 88 | 1011.4 |
| 20260510135704 | 60 | 247 | 4.3 | 7.0 | 0.00 | 0.31 | 0.00 | 86 | 1011.4 |
| 20260510135204 | 61 | 255 | 2.6 | 6.1 | 0.00 | 0.32 | 0.00 | 86 | 1011.4 |
| 20260510134704 | 61 | 234 | 3.5 | 7.0 | 0.00 | 0.33 | 0.00 | 86 | 1011.3 |
| 20260510134204 | 61 | 221 | 4.3 | 10.4 | 0.00 | 0.34 | 0.00 | 87 | 1011.2 |
| 20260510133704 | 61 | 211 | 2.6 | 7.0 | 0.00 | 0.35 | 0.00 | 87 | 1011.1 |
| 20260510132204 | 59 | 191 | 5.2 | 8.7 | 0.00 | 0.37 | 0.00 | 90 | 1011.0 |
| 20260510131705 | 58 | 222 | 2.6 | 10.4 | 0.00 | 0.37 | 0.00 | 91 | 1011.0 |
| 20260510125704 | 57 | 195 | 4.3 | 8.7 | 0.00 | 0.38 | 0.00 | 92 | 1011.1 |
| 20260510125205 | 57 | 210 | 4.3 | 8.7 | 0.00 | 0.38 | 0.00 | 92 | 1011.1 |
| 20260510124705 | 57 | 215 | 2.6 | 7.0 | 0.00 | 0.39 | 0.00 | 92 | 1011.2 |
| 20260510123704 | 56 | 207 | 2.6 | 7.0 | 0.00 | 0.40 | 0.00 | 92 | 1011.1 |
| 20260510123205 | 57 | 218 | 1.7 | 7.0 | 0.00 | 0.41 | 0.00 | 92 | 1011.0 |
| 20260510122705 | 58 | 246 | 4.3 | 8.7 | 0.00 | 0.42 | 0.00 | 92 | 1011.0 |
| 20260510122204 | 57 | 241 | 4.3 | 8.7 | 0.00 | 0.42 | 0.00 | 94 | 1010.9 |
| 20260510121704 | 56 | 206 | 5.2 | 8.7 | 0.00 | 0.43 | 0.00 | 95 | 1010.9 |
| 20260510121204 | 55 | 196 | 3.5 | 7.0 | 0.00 | 0.43 | 0.00 | 95 | 1011.0 |
| 20260510120704 | 55 | 192 | 5.2 | 10.4 | 0.00 | 0.44 | 0.00 | 95 | 1011.0 |
| 20260510120204 | 55 | 196 | 4.3 | 7.8 | 0.00 | 0.44 | 0.00 | 95 | 1011.0 |
| 20260510115204 | 54 | 177 | 3.5 | 7.0 | 0.00 | 0.44 | 0.00 | 96 | 1010.8 |
| 20260510114704 | 54 | 173 | 5.2 | 10.4 | 0.00 | 0.44 | 0.00 | 96 | 1010.8 |
| 20260510114204 | 54 | 206 | 1.7 | 7.0 | 0.00 | 0.44 | 0.00 | 96 | 1010.8 |
| 20260510113705 | 53 | 193 | 5.2 | 12.2 | 0.00 | 0.44 | 0.00 | 96 | 1010.9 |
| 20260510112704 | 53 | 207 | 4.3 | 10.4 | 0.00 | 0.44 | 0.00 | 96 | 1010.8 |
| 20260510112205 | 53 | 197 | 4.3 | 8.7 | 0.00 | 0.44 | 0.00 | 96 | 1010.9 |
| 20260510111204 | 53 | 192 | 2.6 | 8.7 | 0.00 | 0.44 | 0.00 | 96 | 1010.9 |
| 20260510110704 | 53 | 207 | 4.3 | 11.3 | 0.00 | 0.44 | 0.00 | 96 | 1010.8 |
| 20260510110204 | 53 | 209 | 4.3 | 8.7 | 0.00 | 0.44 | 0.00 | 96 | 1010.8 |
| 20260510105704 | 52 | 223 | 2.6 | 8.7 | 0.00 | 0.44 | 0.00 | 96 | 1010.8 |
| 20260510105205 | 52 | 240 | 2.6 | 7.0 | 0.00 | 0.44 | 0.00 | 96 | 1010.7 |
| 20260510104705 | 52 | 198 | 4.3 | 6.1 | 0.00 | 0.44 | 0.00 | 96 | 1010.6 |
| 20260510104204 | 52 | 212 | 3.5 | 7.0 | 0.00 | 0.44 | 0.00 | 96 | 1010.5 |
| 20260510103704 | 52 | 219 | 2.6 | 2.6 | 0.00 | 0.44 | 0.00 | 95 | 1010.4 |
| 20260510103205 | 52 | 166 | 4.3 | 10.4 | 0.00 | 0.44 | 0.00 | 95 | 1010.2 |
| 20260510102704 | 52 | 192 | 3.5 | 10.4 | 0.00 | 0.44 | 0.00 | 95 | 1010.2 |
| 20260510102204 | 52 | 174 | 3.5 | 11.3 | 0.00 | 0.44 | 0.00 | 95 | 1010.1 |
| 20260510101704 | 52 | 175 | 2.6 | 7.8 | 0.00 | 0.44 | 0.00 | 95 | 1010.0 |
| 20260510100704 | 52 | 183 | 3.5 | 7.0 | 0.00 | 0.44 | 0.00 | 94 | 1009.8 |
| 20260510100204 | 51 | 211 | 3.5 | 7.8 | 0.00 | 0.44 | 0.00 | 94 | 1009.8 |
| 20260510095704 | 51 | 180 | 2.6 | 8.7 | 0.00 | 0.44 | 0.00 | 94 | 1009.8 |
| 20260510095204 | 51 | 232 | 1.7 | 8.7 | 0.00 | 0.44 | 0.00 | 93 | 1009.8 |
| 20260510094204 | 51 | 194 | 1.7 | 6.1 | 0.00 | 0.44 | 0.00 | 93 | 1009.7 |
| 20260510093704 | 51 | 168 | 0.9 | 4.3 | 0.00 | 0.44 | 0.00 | 93 | 1009.6 |
| 20260510093205 | 50 | 180 | 1.7 | 5.2 | 0.00 | 0.44 | 0.00 | 94 | 1009.5 |
| 20260510092704 | 50 | 185 | 2.6 | 7.0 | 0.00 | 0.44 | 0.00 | 94 | 1009.4 |
| 20260510092204 | 50 | 164 | 1.7 | 2.6 | 0.00 | 0.44 | 0.00 | 94 | 1009.3 |
| 20260510091704 | 50 | 152 | 1.7 | 2.6 | 0.00 | 0.44 | 0.00 | 94 | 1009.3 |
| 20260510091204 | 50 | 158 | 1.7 | 4.3 | 0.00 | 0.44 | 0.00 | 95 | 1009.3 |
| 20260510090704 | 50 | 142 | 2.6 | 6.1 | 0.00 | 0.44 | 0.00 | 95 | 1009.3 |
| 20260510090205 | 51 | 140 | 2.6 | 5.2 | 0.00 | 0.44 | 0.00 | 95 | 1009.3 |
| 20260510085704 | 51 | 144 | 2.6 | 7.8 | 0.00 | 0.44 | 0.00 | 95 | 1009.4 |
| 20260510085206 | 51 | 184 | 2.6 | 4.3 | 0.00 | 0.44 | 0.00 | 95 | 1009.4 |
| 20260510084704 | 51 | 211 | 1.7 | 8.7 | 0.00 | 0.44 | 0.00 | 95 | 1009.3 |
| 20260510084204 | 51 | 171 | 4.3 | 7.8 | 0.00 | 0.44 | 0.00 | 95 | 1009.3 |
| 20260510083705 | 51 | 202 | 2.6 | 7.8 | 0.00 | 0.44 | 0.00 | 95 | 1009.5 |
| 20260510083204 | 51 | 216 | 2.6 | 7.0 | 0.00 | 0.44 | 0.00 | 95 | 1009.3 |
| 20260510082704 | 52 | 216 | 4.3 | 10.4 | 0.00 | 0.44 | 0.00 | 95 | 1009.2 |
| 20260510082204 | 52 | 200 | 3.5 | 7.8 | 0.00 | 0.44 | 0.00 | 95 | 1009.3 |
| 20260510081205 | 52 | 216 | 2.6 | 8.7 | 0.00 | 0.44 | 0.00 | 95 | 1009.1 |
| 20260510080705 | 52 | 216 | 5.2 | 11.3 | 0.00 | 0.44 | 0.00 | 95 | 1009.2 |
| 20260510080204 | 52 | 211 | 5.2 | 10.4 | 0.00 | 0.44 | 0.00 | 95 | 1008.8 |
| 20260510075704 | 52 | 169 | 4.3 | 12.2 | 0.00 | 0.44 | 0.00 | 95 | 1009.1 |
| 20260510075205 | 52 | 185 | 6.1 | 12.2 | 0.00 | 0.44 | 0.00 | 95 | 1009.4 |
| 20260510074704 | 52 | 197 | 5.2 | 14.8 | 0.00 | 0.44 | 0.00 | 96 | 1009.5 |
| 20260510074204 | 52 | 192 | 4.3 | 10.4 | 0.00 | 0.44 | 0.00 | 96 | 1009.5 |
| 20260510073704 | 52 | 189 | 4.3 | 11.3 | 0.00 | 0.44 | 0.00 | 95 | 1009.7 |
| 20260510073205 | 52 | 204 | 5.2 | 12.2 | 0.00 | 0.44 | 0.00 | 95 | 1009.8 |
| 20260510072705 | 52 | 205 | 2.6 | 12.2 | 0.00 | 0.44 | 0.00 | 95 | 1009.9 |
| 20260510071704 | 52 | 220 | 1.7 | 6.1 | 0.00 | 0.44 | 0.00 | 95 | 1010.2 |
| 20260510071204 | 52 | 193 | 3.5 | 7.0 | 0.00 | 0.44 | 0.00 | 96 | 1010.2 |
| 20260510070704 | 52 | 209 | 2.6 | 7.0 | 0.00 | 0.44 | 0.00 | 96 | 1010.2 |
| 20260510070205 | 52 | 212 | 4.3 | 7.8 | 0.00 | 0.44 | 0.00 | 96 | 1010.2 |
| 20260510065205 | 52 | 229 | 4.3 | 7.8 | 0.00 | 0.44 | 0.00 | 96 | 1010.2 |
| 20260510064704 | 52 | 220 | 1.7 | 4.3 | 0.00 | 0.44 | 0.00 | 96 | 1010.3 |
| 20260510064204 | 52 | 236 | 2.6 | 5.2 | 0.00 | 0.44 | 0.00 | 96 | 1010.3 |
| 20260510063704 | 52 | 240 | 2.6 | 6.1 | 0.00 | 0.44 | 0.00 | 96 | 1010.1 |
| 20260510063205 | 52 | 239 | 3.5 | 5.2 | 0.00 | 0.44 | 0.00 | 96 | 1010.1 |
| 20260510062705 | 52 | 277 | 0.9 | 4.3 | 0.00 | 0.44 | 0.00 | 96 | 1009.9 |
| 20260510062205 | 52 | 210 | 2.6 | 5.2 | 0.00 | 0.44 | 0.00 | 95 | 1009.6 |
| 20260510061704 | 52 | 214 | 1.7 | 5.2 | 0.00 | 0.44 | 0.00 | 95 | 1009.7 |
| 20260510061205 | 52 | 206 | 2.6 | 5.2 | 0.00 | 0.44 | 0.00 | 96 | 1009.6 |
| 20260510060704 | 52 | 195 | 1.7 | 7.0 | 0.00 | 0.44 | 0.00 | 96 | 1009.6 |
| 20260510060204 | 52 | 146 | 1.7 | 7.0 | 0.00 | 0.44 | 0.00 | 96 | 1009.5 |
| 20260510055704 | 51 | 186 | 6.1 | 10.4 | 0.00 | 0.44 | 0.00 | 96 | 1009.5 |
| 20260510055204 | 51 | 174 | 1.7 | 5.2 | 0.00 | 0.44 | 0.00 | 96 | 1009.5 |
| 20260510054704 | 52 | 148 | 3.5 | 7.8 | 0.00 | 0.44 | 0.00 | 96 | 1009.5 |
| 20260510054205 | 52 | 179 | 2.6 | 7.0 | 0.00 | 0.44 | 0.00 | 96 | 1009.6 |
| 20260510053704 | 52 | 181 | 5.2 | 12.2 | 0.00 | 0.44 | 0.00 | 96 | 1009.6 |
| 20260510053204 | 52 | 216 | 3.5 | 7.8 | 0.00 | 0.44 | 0.00 | 96 | 1009.6 |
| 20260510052204 | 52 | 195 | 4.3 | 11.3 | 0.00 | 0.44 | 0.00 | 95 | 1009.6 |
| 20260510051704 | 52 | 186 | 2.6 | 10.4 | 0.00 | 0.44 | 0.00 | 95 | 1009.5 |
| 20260510051204 | 52 | 193 | 5.2 | 10.4 | 0.00 | 0.44 | 0.00 | 96 | 1009.5 |
| 20260510050704 | 52 | 146 | 3.5 | 7.0 | 0.00 | 0.44 | 0.00 | 96 | 1009.5 |
| 20260510050205 | 52 | 212 | 2.6 | 7.8 | 0.00 | 0.44 | 0.00 | 96 | 1009.6 |
| 20260510045704 | 52 | 216 | 4.3 | 8.7 | 0.00 | 0.44 | 0.00 | 96 | 1009.6 |
| 20260510045204 | 52 | 210 | 1.7 | 5.2 | 0.00 | 0.44 | 0.00 | 96 | 1009.7 |
| 20260510044704 | 52 | 179 | 4.3 | 8.7 | 0.00 | 0.44 | 0.00 | 96 | 1009.7 |
| 20260510044204 | 52 | 204 | 2.6 | 6.1 | 0.00 | 0.44 | 0.00 | 96 | 1009.7 |
| 20260510043704 | 52 | 196 | 5.2 | 11.3 | 0.00 | 0.44 | 0.00 | 95 | 1009.7 |
| 20260510043204 | 52 | 227 | 3.5 | 8.7 | 0.00 | 0.44 | 0.00 | 95 | 1009.8 |
| 20260510042704 | 52 | 185 | 2.6 | 7.0 | 0.00 | 0.44 | 0.00 | 95 | 1009.7 |
| 20260510042204 | 52 | 203 | 4.3 | 10.4 | 0.00 | 0.44 | 0.00 | 95 | 1009.6 |
| 20260510041704 | 53 | 175 | 4.3 | 10.4 | 0.00 | 0.44 | 0.00 | 95 | 1009.7 |
| 20260510041204 | 53 | 192 | 4.3 | 10.4 | 0.00 | 0.44 | 0.00 | 95 | 1009.8 |
| 20260510040204 | 53 | 223 | 5.2 | 7.8 | 0.00 | 0.44 | 0.00 | 95 | 1009.7 |
| 20260510035704 | 53 | 198 | 3.5 | 12.2 | 0.00 | 0.44 | 0.44 | 95 | 1009.7 |
| 20260510035204 | 53 | 192 | 4.3 | 12.2 | 0.00 | 0.44 | 0.44 | 95 | 1009.6 |
| 20260510034704 | 53 | 192 | 2.6 | 10.4 | 0.00 | 0.44 | 0.44 | 95 | 1009.6 |
| 20260510034204 | 52 | 180 | 3.5 | 7.8 | 0.00 | 0.44 | 0.44 | 95 | 1009.5 |
| 20260510032205 | 52 | 175 | 3.5 | 7.0 | 0.00 | 0.44 | 0.44 | 95 | 1009.4 |
| 20260510031704 | 52 | 204 | 3.5 | 7.0 | 0.00 | 0.44 | 0.44 | 95 | 1009.4 |
| 20260510031204 | 52 | 193 | 4.3 | 10.4 | 0.00 | 0.44 | 0.44 | 95 | 1009.4 |
| 20260510030705 | 53 | 161 | 3.5 | 8.7 | 0.00 | 0.44 | 0.44 | 95 | 1009.4 |
| 20260510024204 | 53 | 159 | 1.7 | 5.2 | 0.00 | 0.44 | 0.44 | 95 | 1009.7 |
| 20260510023704 | 53 | 174 | 3.5 | 6.1 | 0.00 | 0.44 | 0.44 | 95 | 1009.7 |
| 20260510023204 | 52 | 193 | 4.3 | 7.0 | 0.00 | 0.44 | 0.44 | 95 | 1009.7 |
| 20260510022704 | 52 | 184 | 3.5 | 7.8 | 0.00 | 0.44 | 0.44 | 95 | 1009.7 |
| 20260510021704 | 52 | 203 | 5.2 | 12.2 | 0.00 | 0.44 | 0.44 | 95 | 1009.9 |
| 20260510021204 | 52 | 205 | 3.5 | 8.7 | 0.00 | 0.44 | 0.44 | 96 | 1009.8 |
| 20260510020705 | 52 | 194 | 3.5 | 10.4 | 0.00 | 0.44 | 0.44 | 96 | 1009.7 |
| 20260510020203 | 52 | 188 | 4.3 | 7.0 | 0.00 | 0.44 | 0.44 | 95 | 1009.8 |
| 20260510015704 | 52 | 184 | 2.6 | 7.8 | 0.00 | 0.44 | 0.44 | 96 | 1009.9 |
| 20260510015204 | 52 | 193 | 2.6 | 7.8 | 0.00 | 0.44 | 0.44 | 96 | 1009.7 |
| 20260510014704 | 52 | 170 | 3.5 | 7.0 | 0.00 | 0.44 | 0.44 | 96 | 1009.7 |
| 20260510013704 | 52 | 149 | 1.7 | 7.8 | 0.00 | 0.44 | 0.44 | 96 | 1009.7 |
| 20260510013204 | 52 | 146 | 3.5 | 10.4 | 0.00 | 0.44 | 0.44 | 96 | 1009.7 |
| 20260510012704 | 52 | 182 | 1.7 | 6.1 | 0.00 | 0.44 | 0.44 | 96 | 1009.8 |
| 20260510012204 | 52 | 178 | 2.6 | 7.0 | 0.00 | 0.44 | 0.44 | 95 | 1009.8 |
| 20260510011704 | 52 | 168 | 2.6 | 7.8 | 0.00 | 0.44 | 0.44 | 95 | 1009.8 |
| 20260510011204 | 52 | 160 | 2.6 | 6.1 | 0.00 | 0.44 | 0.44 | 95 | 1009.9 |
| 20260510010704 | 52 | 167 | 1.7 | 7.8 | 0.00 | 0.44 | 0.44 | 95 | 1009.8 |
| 20260510010204 | 52 | 158 | 1.7 | 6.1 | 0.00 | 0.44 | 0.44 | 95 | 1009.8 |
| 20260510005704 | 52 | 162 | 0.9 | 5.2 | 0.00 | 0.44 | 0.44 | 95 | 1009.8 |
| 20260510005204 | 52 | 173 | 1.7 | 5.2 | 0.00 | 0.44 | 0.44 | 95 | 1009.7 |
| 20260510004204 | 52 | 225 | 0.9 | 7.0 | 0.00 | 0.44 | 0.44 | 95 | 1009.9 |
| 20260510003704 | 52 | 204 | 2.6 | 5.2 | 0.00 | 0.44 | 0.44 | 95 | 1009.8 |
| 20260510003204 | 52 | 207 | 1.7 | 4.3 | 0.00 | 0.44 | 0.44 | 96 | 1009.6 |
| 20260510002704 | 52 | 183 | 1.7 | 5.2 | 0.00 | 0.44 | 0.44 | 96 | 1009.5 |
| 20260510002204 | 52 | 190 | 0.9 | 4.3 | 0.00 | 0.44 | 0.44 | 96 | 1009.3 |
| 20260510001704 | 52 | 203 | 2.6 | 6.1 | 0.00 | 0.44 | 0.44 | 96 | 1009.2 |
| 20260510001205 | 52 | 205 | 2.6 | 6.1 | 0.00 | 0.44 | 0.44 | 95 | 1009.1 |
| 20260510000703 | 52 | 192 | 2.6 | 7.0 | 0.00 | 0.44 | 0.44 | 96 | 1009.0 |
| 20260510000204 | 52 | 194 | 1.7 | 5.2 | 0.00 | 0.44 | 0.44 | 96 | 1009.0 |
| 20260509235704 | 52 | 208 | 2.6 | 7.0 | 0.00 | 0.44 | 0.44 | 96 | 1008.9 |
| 20260509235204 | 53 | 200 | 4.3 | 10.4 | 0.00 | 0.44 | 0.44 | 95 | 1008.8 |
| 20260509234204 | 53 | 211 | 4.3 | 7.0 | 0.00 | 0.44 | 0.44 | 96 | 1008.8 |
| 20260509233704 | 53 | 185 | 2.6 | 10.4 | 0.00 | 0.44 | 0.44 | 96 | 1008.6 |
| 20260509233204 | 53 | 156 | 1.7 | 5.2 | 0.00 | 0.44 | 0.44 | 96 | 1008.5 |
| 20260509232704 | 53 | 194 | 3.5 | 7.8 | 0.00 | 0.44 | 0.44 | 95 | 1008.5 |
| 20260509232204 | 53 | 189 | 3.5 | 7.8 | 0.00 | 0.44 | 0.44 | 95 | 1008.3 |
| 20260509231703 | 53 | 173 | 4.3 | 7.0 | 0.00 | 0.44 | 0.44 | 95 | 1008.4 |
| 20260509231204 | 54 | 192 | 2.6 | 7.8 | 0.00 | 0.44 | 0.44 | 95 | 1008.5 |
| 20260509230204 | 54 | 189 | 5.2 | 10.4 | 0.00 | 0.44 | 0.44 | 95 | 1008.5 |
| 20260509225704 | 54 | 184 | 5.2 | 11.3 | 0.00 | 0.44 | 0.44 | 95 | 1008.5 |
| 20260509225204 | 54 | 193 | 3.5 | 7.0 | 0.00 | 0.44 | 0.44 | 95 | 1008.6 |
| 20260509224704 | 54 | 189 | 2.6 | 12.2 | 0.00 | 0.44 | 0.44 | 95 | 1008.5 |
| 20260509224204 | 54 | 179 | 2.6 | 10.4 | 0.00 | 0.44 | 0.44 | 95 | 1008.6 |
| 20260509223705 | 54 | 184 | 5.2 | 11.3 | 0.00 | 0.44 | 0.44 | 95 | 1008.7 |
| 20260509222704 | 54 | 179 | 4.3 | 10.4 | 0.00 | 0.44 | 0.44 | 95 | 1008.6 |
| 20260509222204 | 54 | 212 | 3.5 | 8.7 | 0.00 | 0.44 | 0.44 | 95 | 1008.6 |
| 20260509221704 | 54 | 185 | 5.2 | 11.3 | 0.00 | 0.44 | 0.44 | 95 | 1008.5 |
| 20260509221204 | 54 | 197 | 4.3 | 11.3 | 0.00 | 0.44 | 0.44 | 95 | 1008.5 |
| 20260509220703 | 54 | 190 | 5.2 | 11.3 | 0.00 | 0.44 | 0.44 | 95 | 1008.6 |
| 20260509220204 | 54 | 187 | 2.6 | 7.8 | 0.00 | 0.44 | 0.44 | 96 | 1008.7 |
| 20260509215706 | 54 | 185 | 2.6 | 13.9 | 0.00 | 0.44 | 0.44 | 95 | 1008.6 |
| 20260509215205 | 54 | 196 | 2.6 | 7.8 | 0.00 | 0.44 | 0.44 | 96 | 1008.6 |
| 20260509214206 | 54 | 203 | 1.7 | 7.0 | 0.00 | 0.44 | 0.44 | 96 | 1008.8 |
| 20260509213706 | 54 | 193 | 5.2 | 11.3 | 0.00 | 0.44 | 0.44 | 95 | 1008.8 |
| 20260509213206 | 54 | 191 | 5.2 | 8.7 | 0.00 | 0.44 | 0.44 | 96 | 1008.8 |
| 20260509212205 | 54 | 214 | 3.5 | 7.8 | 0.00 | 0.44 | 0.44 | 95 | 1008.8 |
| 20260509211705 | 54 | 217 | 7.8 | 11.3 | 0.00 | 0.44 | 0.44 | 95 | 1008.8 |
| 20260509211206 | 54 | 205 | 2.6 | 10.4 | 0.00 | 0.44 | 0.44 | 94 | 1008.9 |
| 20260509210705 | 54 | 200 | 5.2 | 10.4 | 0.00 | 0.44 | 0.44 | 94 | 1008.8 |
| 20260509210206 | 54 | 203 | 3.5 | 6.1 | 0.00 | 0.44 | 0.44 | 94 | 1008.9 |
| 20260509205706 | 54 | 202 | 4.3 | 8.7 | 0.00 | 0.44 | 0.44 | 94 | 1008.9 |
| 20260509205206 | 54 | 204 | 5.2 | 11.3 | 0.00 | 0.44 | 0.44 | 94 | 1008.9 |
| 20260509204706 | 53 | 207 | 3.5 | 10.4 | 0.00 | 0.44 | 0.44 | 93 | 1009.1 |
| 20260509204206 | 53 | 197 | 5.2 | 10.4 | 0.00 | 0.44 | 0.44 | 93 | 1009.1 |
| 20260509203705 | 53 | 217 | 4.3 | 10.4 | 0.00 | 0.44 | 0.44 | 93 | 1009.2 |
| 20260509203206 | 53 | 159 | 3.5 | 7.8 | 0.00 | 0.44 | 0.44 | 93 | 1009.2 |
| 20260509202707 | 53 | 176 | 2.6 | 7.8 | 0.00 | 0.44 | 0.44 | 92 | 1009.3 |
| 20260509202207 | 53 | 164 | 2.6 | 7.0 | 0.00 | 0.44 | 0.44 | 92 | 1009.3 |
| 20260509201705 | 53 | 172 | 2.6 | 10.4 | 0.01 | 0.44 | 0.44 | 92 | 1009.4 |
| 20260509201206 | 52 | 203 | 4.3 | 8.7 | 0.01 | 0.44 | 0.44 | 92 | 1009.4 |
| 20260509200706 | 52 | 187 | 3.5 | 7.0 | 0.01 | 0.44 | 0.44 | 92 | 1009.7 |
| 20260509200206 | 52 | 184 | 4.3 | 10.4 | 0.02 | 0.44 | 0.44 | 92 | 1009.8 |
| 20260509195706 | 52 | 202 | 2.6 | 10.4 | 0.03 | 0.44 | 0.44 | 92 | 1009.8 |
| 20260509195205 | 52 | 181 | 4.3 | 10.4 | 0.03 | 0.44 | 0.44 | 92 | 1010.0 |
| 20260509194706 | 52 | 134 | 2.6 | 6.1 | 0.04 | 0.44 | 0.44 | 92 | 1009.9 |
| 20260509194206 | 52 | 203 | 2.6 | 10.4 | 0.04 | 0.44 | 0.44 | 92 | 1010.0 |
| 20260509193705 | 52 | 150 | 5.2 | 10.4 | 0.05 | 0.44 | 0.44 | 92 | 1010.0 |
| 20260509193206 | 52 | 184 | 4.3 | 10.4 | 0.05 | 0.44 | 0.44 | 92 | 1010.0 |
| 20260509192705 | 52 | 177 | 5.2 | 10.4 | 0.06 | 0.44 | 0.44 | 92 | 1010.1 |
| 20260509192205 | 52 | 180 | 4.3 | 7.8 | 0.06 | 0.44 | 0.44 | 92 | 1010.1 |
| 20260509191705 | 51 | 189 | 2.6 | 7.8 | 0.06 | 0.43 | 0.43 | 92 | 1010.2 |
| 20260509191206 | 51 | 202 | 1.7 | 6.1 | 0.06 | 0.43 | 0.43 | 92 | 1010.3 |
| 20260509190205 | 51 | 188 | 2.6 | 5.2 | 0.06 | 0.42 | 0.42 | 92 | 1010.4 |
| 20260509185706 | 51 | 182 | 3.5 | 7.8 | 0.05 | 0.41 | 0.41 | 92 | 1010.5 |
| 20260509185206 | 51 | 203 | 2.6 | 5.2 | 0.06 | 0.41 | 0.41 | 92 | 1010.4 |
| 20260509184205 | 51 | 208 | 2.6 | 5.2 | 0.05 | 0.40 | 0.40 | 92 | 1010.5 |
| 20260509183706 | 51 | 191 | 3.5 | 7.0 | 0.04 | 0.39 | 0.39 | 92 | 1010.4 |
| 20260509183205 | 51 | 177 | 2.6 | 7.8 | 0.05 | 0.39 | 0.39 | 92 | 1010.4 |
| 20260509181205 | 50 | 166 | 2.6 | 8.7 | 0.04 | 0.37 | 0.37 | 93 | 1010.4 |
| 20260509180706 | 50 | 155 | 2.6 | 7.8 | 0.03 | 0.36 | 0.36 | 93 | 1010.3 |
| 20260509180206 | 50 | 164 | 4.3 | 8.7 | 0.04 | 0.36 | 0.36 | 93 | 1010.3 |